,,PA_Meas_PMT16A,,PR_Meas_QMR101_102,,RH_Meas_QMH101,,SR_Meas_QMS101,,TA_Meas_QMH101,,GenWind,,GenWind,
time,status,PA,status,PR,status,RH,status,SR,status,TA,status,DirAvg,status,SpdAvg,
2014-04-04, 00:00:05,VALID,919.229,VALID,0,VALID,96.4515,VALID,0,VALID,20.1708,VALID,335,VALID,1.14727,
2014-04-04, 00:01:05,VALID,919.243,VALID,0,VALID,96.4515,VALID,0,VALID,20.1318,VALID,351,VALID,1.18516,
2014-04-04, 00:02:05,VALID,919.241,VALID,0,VALID,96.4591,VALID,0,VALID,20.1513,VALID,349,VALID,1.25977,
2014-04-04, 00:03:05,VALID,919.225,VALID,0,VALID,96.4591,VALID,0,VALID,20.1529,VALID,23,VALID,1.08281,
2014-04-04, 00:04:05,VALID,919.208,VALID,0,VALID,96.4743,VALID,0,VALID,20.1919,VALID,301,VALID,1.01289,
2014-04-04, 00:05:05,VALID,919.19,VALID,0,VALID,96.4743,VALID,0,VALID,20.1529,VALID,3,VALID,1.95664,
2014-04-04, 00:06:05,VALID,919.179,VALID,0,VALID,96.4667,VALID,0,VALID,20.1529,VALID,28,VALID,1.36836,
2014-04-04, 00:07:05,VALID,919.138,VALID,0,VALID,96.4819,VALID,0,VALID,20.0944,VALID,344,VALID,2.55938,
2014-04-04, 00:08:05,VALID,919.165,VALID,0,VALID,96.4438,VALID,0,VALID,20.0749,VALID,338,VALID,1.37188,
2014-04-04, 00:09:05,VALID,919.148,VALID,0,VALID,96.4743,VALID,0,VALID,20.0944,VALID,14,VALID,1.37305,
2014-04-04, 00:10:05,VALID,919.119,VALID,0,VALID,96.4743,VALID,0,VALID,20.0733,VALID,12,VALID,0.732422,
2014-04-04, 00:11:05,VALID,919.115,VALID,0,VALID,96.4972,VALID,0,VALID,20.0944,VALID,14,VALID,1.05117,
2014-04-04, 00:12:05,VALID,919.108,VALID,0,VALID,96.4667,VALID,0,VALID,20.0749,VALID,9,VALID,1.18672,
2014-04-04, 00:13:05,VALID,919.091,VALID,0,VALID,96.5048,VALID,0,VALID,20.0148,VALID,4,VALID,1.31602,
2014-04-04, 00:14:05,VALID,919.098,VALID,0,VALID,96.4896,VALID,0,VALID,20.0538,VALID,18,VALID,1.04414,
2014-04-04, 00:15:05,VALID,919.095,VALID,0,VALID,96.4743,VALID,0,VALID,20.0733,VALID,25,VALID,1.50039,
2014-04-04, 00:16:05,VALID,919.051,VALID,0,VALID,96.4743,VALID,0,VALID,20.0928,VALID,11,VALID,1.12422,
2014-04-04, 00:17:05,VALID,919.066,VALID,0,VALID,96.4972,VALID,0,VALID,20.0733,VALID,11,VALID,2.42188,
2014-04-04, 00:18:05,VALID,919.031,VALID,0,VALID,96.4972,VALID,0,VALID,20.0944,VALID,20,VALID,1.61953,
2014-04-04, 00:19:05,VALID,919.001,VALID,0,VALID,96.4896,VALID,0,VALID,20.0749,VALID,353,VALID,0.649219,
2014-04-04, 00:20:05,VALID,918.961,VALID,0,VALID,96.4972,VALID,0,VALID,20.0749,VALID,32,VALID,1.69648,
2014-04-04, 00:21:05,VALID,918.969,VALID,0,VALID,96.4896,VALID,0.107441,VALID,20.0523,VALID,16,VALID,1.75156,
2014-04-04, 00:22:05,VALID,918.955,VALID,0,VALID,96.5048,VALID,0.107441,VALID,20.0718,VALID,41,VALID,1.45938,
2014-04-04, 00:23:05,VALID,918.945,VALID,0,VALID,96.5201,VALID,0.107441,VALID,20.0523,VALID,3,VALID,0.49375,
2014-04-04, 00:24:05,VALID,918.96,VALID,0,VALID,96.4896,VALID,0.107441,VALID,20.0523,VALID,12,VALID,0.820703,
2014-04-04, 00:25:05,VALID,918.947,VALID,0,VALID,96.5201,VALID,0.107441,VALID,20.0523,VALID,15,VALID,1.00898,
2014-04-04, 00:26:05,VALID,918.958,VALID,0,VALID,96.5048,VALID,0.107441,VALID,20.0523,VALID,14,VALID,1.06562,
2014-04-04, 00:27:05,VALID,918.937,VALID,0,VALID,96.4972,VALID,0.107441,VALID,20.0133,VALID,9,VALID,1.60273,
2014-04-04, 00:28:05,VALID,918.92,VALID,0,VALID,96.5048,VALID,0.107441,VALID,20.0343,VALID,44,VALID,0.897266,
2014-04-04, 00:29:05,VALID,918.892,VALID,0,VALID,96.5201,VALID,0.107441,VALID,20.0523,VALID,32,VALID,0.505469,
2014-04-04, 00:30:05,VALID,918.857,VALID,0,VALID,96.5048,VALID,0.107441,VALID,20.0523,VALID,29,VALID,0.334766,
2014-04-04, 00:31:05,VALID,918.857,VALID,0,VALID,96.5201,VALID,0.107441,VALID,20.0133,VALID,28,VALID,0.892969,
2014-04-04, 00:32:05,VALID,918.867,VALID,0,VALID,96.5048,VALID,0.107441,VALID,20.0328,VALID,14,VALID,0.621094,
2014-04-04, 00:33:05,VALID,918.829,VALID,0,VALID,96.5277,VALID,0.107441,VALID,20.0523,VALID,15,VALID,0.772266,
2014-04-04, 00:34:05,VALID,918.811,VALID,0,VALID,96.5277,VALID,0.107441,VALID,20.0133,VALID,22,VALID,0.701172,
2014-04-04, 00:35:05,VALID,918.82,VALID,0,VALID,96.5048,VALID,0.107441,VALID,19.9743,VALID,354,VALID,1.08242,
2014-04-04, 00:36:05,VALID,918.795,VALID,0,VALID,96.5277,VALID,0,VALID,20.0148,VALID,20,VALID,0.9125,
2014-04-04, 00:37:05,VALID,918.802,VALID,0,VALID,96.5277,VALID,0,VALID,20.0538,VALID,353,VALID,1.32617,
2014-04-04, 00:38:05,VALID,918.799,VALID,0,VALID,96.5506,VALID,0,VALID,19.9758,VALID,17,VALID,2.17227,
2014-04-04, 00:39:05,VALID,918.749,VALID,0,VALID,96.5429,VALID,0,VALID,19.9578,VALID,9,VALID,2.35859,
2014-04-04, 00:40:05,VALID,918.776,VALID,0,VALID,96.5277,VALID,0,VALID,19.9578,VALID,16,VALID,1.52109,
2014-04-04, 00:41:05,VALID,918.759,VALID,0,VALID,96.5353,VALID,0,VALID,19.9368,VALID,341,VALID,1.95,
2014-04-04, 00:42:05,VALID,918.759,VALID,0,VALID,96.5429,VALID,0,VALID,19.9383,VALID,354,VALID,1.39648,
2014-04-04, 00:43:05,VALID,918.706,VALID,0,VALID,96.5429,VALID,0,VALID,19.9173,VALID,333,VALID,1.16484,
2014-04-04, 00:44:05,VALID,918.702,VALID,0.2,VALID,96.5582,VALID,0,VALID,19.9173,VALID,312,VALID,1.16719,
2014-04-04, 00:45:05,VALID,918.71,VALID,0,VALID,96.5582,VALID,0,VALID,19.9173,VALID,9,VALID,0.912109,
2014-04-04, 00:46:05,VALID,918.722,VALID,0,VALID,96.5429,VALID,0,VALID,19.9563,VALID,28,VALID,0.85625,
2014-04-04, 00:47:05,VALID,918.715,VALID,0,VALID,96.5429,VALID,0,VALID,19.9563,VALID,15,VALID,0.745703,
2014-04-04, 00:48:05,VALID,918.715,VALID,0,VALID,96.5429,VALID,0,VALID,19.9758,VALID,9,VALID,1.0875,
2014-04-04, 00:49:05,VALID,918.719,VALID,0,VALID,96.5429,VALID,0,VALID,19.9578,VALID,17,VALID,2.20586,
2014-04-04, 00:50:05,VALID,918.689,VALID,0,VALID,96.5506,VALID,0,VALID,19.9953,VALID,18,VALID,0.874609,
2014-04-04, 00:51:05,VALID,918.68,VALID,0,VALID,96.5658,VALID,0,VALID,19.9758,VALID,23,VALID,1.10938,
2014-04-04, 00:52:05,VALID,918.685,VALID,0,VALID,96.5582,VALID,0,VALID,19.9968,VALID,14,VALID,0.778125,
2014-04-04, 00:53:05,VALID,918.703,VALID,0,VALID,96.5429,VALID,0,VALID,19.9968,VALID,1,VALID,1.73086,
2014-04-04, 00:54:05,VALID,918.661,VALID,0,VALID,96.5506,VALID,0,VALID,19.9578,VALID,13,VALID,1.74141,
2014-04-04, 00:55:05,VALID,918.668,VALID,0,VALID,96.5506,VALID,0,VALID,19.9578,VALID,353,VALID,1.09883,
2014-04-04, 00:56:05,VALID,918.651,VALID,0,VALID,96.5429,VALID,0,VALID,19.9173,VALID,360,VALID,0.977734,
2014-04-04, 00:57:05,VALID,918.646,VALID,0,VALID,96.5811,VALID,0,VALID,19.9383,VALID,2,VALID,1.08203,
2014-04-04, 00:58:05,VALID,918.625,VALID,0,VALID,96.5582,VALID,0,VALID,19.9368,VALID,30,VALID,1.00703,
2014-04-04, 00:59:04,VALID,918.633,VALID,0,VALID,96.5658,VALID,0,VALID,19.9563,VALID,360,VALID,0.712109,
2014-04-04, 01:00:04,VALID,918.621,VALID,0,VALID,96.5658,VALID,0,VALID,19.9563,VALID,26,VALID,1.29062,
2014-04-04, 01:01:04,VALID,918.603,VALID,0,VALID,96.5887,VALID,0,VALID,19.8978,VALID,7,VALID,0.916016,
2014-04-04, 01:02:04,VALID,918.628,VALID,0,VALID,96.5658,VALID,0,VALID,19.9578,VALID,15,VALID,0.961328,
2014-04-04, 01:03:04,VALID,918.629,VALID,0,VALID,96.5963,VALID,0,VALID,19.9758,VALID,15,VALID,0.503516,
2014-04-04, 01:04:04,VALID,918.611,VALID,0,VALID,96.5811,VALID,0,VALID,19.9758,VALID,16,VALID,1.1625,
2014-04-04, 01:05:04,VALID,918.58,VALID,0,VALID,96.5811,VALID,0,VALID,19.9773,VALID,16,VALID,0.794922,
2014-04-04, 01:06:04,VALID,918.593,VALID,0,VALID,96.5887,VALID,0,VALID,20.0163,VALID,19,VALID,0.736328,
2014-04-04, 01:07:04,VALID,918.609,VALID,0,VALID,96.5811,VALID,0,VALID,20.0553,VALID,21,VALID,0.253516,
2014-04-04, 01:08:04,VALID,918.573,VALID,0,VALID,96.5963,VALID,0,VALID,20.0358,VALID,21,VALID,0.494141,
2014-04-04, 01:09:04,VALID,918.577,VALID,0,VALID,96.5887,VALID,0,VALID,20.0538,VALID,21,VALID,0.028125,
2014-04-04, 01:10:04,VALID,918.565,VALID,0,VALID,96.5963,VALID,0,VALID,20.0148,VALID,26,VALID,0.862891,
2014-04-04, 01:11:04,VALID,918.551,VALID,0,VALID,96.6039,VALID,0,VALID,19.9773,VALID,36,VALID,1.24258,
2014-04-04, 01:12:04,VALID,918.568,VALID,0,VALID,96.6115,VALID,0,VALID,19.9953,VALID,31,VALID,1.01328,
2014-04-04, 01:13:04,VALID,918.526,VALID,0,VALID,96.6039,VALID,0,VALID,20.0163,VALID,13,VALID,0.896484,
2014-04-04, 01:14:04,VALID,918.522,VALID,0,VALID,96.5887,VALID,0,VALID,20.0163,VALID,13,VALID,0.340625,
2014-04-04, 01:15:04,VALID,918.518,VALID,0,VALID,96.5811,VALID,0,VALID,20.0163,VALID,13,VALID,1.06641,
2014-04-04, 01:16:04,VALID,918.509,VALID,0,VALID,96.5963,VALID,0,VALID,19.9758,VALID,10,VALID,0.354688,
2014-04-04, 01:17:04,VALID,918.511,VALID,0,VALID,96.6039,VALID,0,VALID,19.9953,VALID,2,VALID,0.787891,
2014-04-04, 01:18:04,VALID,918.52,VALID,0,VALID,96.6115,VALID,0,VALID,19.9368,VALID,23,VALID,0.485547,
2014-04-04, 01:19:04,VALID,918.527,VALID,0,VALID,96.5887,VALID,0,VALID,19.9563,VALID,353,VALID,0.59375,
2014-04-04, 01:20:04,VALID,918.544,VALID,0,VALID,96.6115,VALID,0,VALID,19.9188,VALID,353,VALID,0.716016,
2014-04-04, 01:21:04,VALID,918.487,VALID,0,VALID,96.6039,VALID,0,VALID,19.9173,VALID,353,VALID,0.151172,
2014-04-04, 01:22:04,VALID,918.507,VALID,0,VALID,96.6115,VALID,0,VALID,19.8993,VALID,353,VALID,0.901953,
2014-04-04, 01:23:04,VALID,918.483,VALID,0,VALID,96.6192,VALID,0,VALID,19.8783,VALID,27,VALID,1.16289,
2014-04-04, 01:24:04,VALID,918.491,VALID,0,VALID,96.6268,VALID,0,VALID,19.8588,VALID,15,VALID,0.836719,
2014-04-04, 01:25:04,VALID,918.459,VALID,0,VALID,96.6268,VALID,0,VALID,19.8993,VALID,19,VALID,0.801562,
2014-04-04, 01:26:04,VALID,918.441,VALID,0,VALID,96.6115,VALID,0,VALID,19.9368,VALID,19,VALID,0.816406,
2014-04-04, 01:27:04,VALID,918.444,VALID,0,VALID,96.6039,VALID,0,VALID,19.9368,VALID,19,VALID,0.290234,
2014-04-04, 01:28:04,VALID,918.421,VALID,0,VALID,96.6192,VALID,0,VALID,19.9578,VALID,19,VALID,0.210547,
2014-04-04, 01:29:04,VALID,918.405,VALID,0,VALID,96.6192,VALID,0,VALID,19.9368,VALID,19,VALID,0.253906,
2014-04-04, 01:30:04,VALID,918.397,VALID,0.2,VALID,96.6268,VALID,0,VALID,19.9563,VALID,44,VALID,1.65117,
2014-04-04, 01:31:04,VALID,918.396,VALID,0,VALID,96.6268,VALID,0,VALID,19.9368,VALID,2,VALID,0.407031,
2014-04-04, 01:32:04,VALID,918.388,VALID,0,VALID,96.5963,VALID,0,VALID,19.9368,VALID,7,VALID,0.410156,
2014-04-04, 01:33:04,VALID,918.354,VALID,0,VALID,96.6268,VALID,0,VALID,19.9368,VALID,19,VALID,1.2582,
2014-04-04, 01:34:04,VALID,918.328,VALID,0,VALID,96.6039,VALID,0,VALID,19.9368,VALID,25,VALID,1.4293,
2014-04-04, 01:35:04,VALID,918.331,VALID,0.2,VALID,96.6268,VALID,0,VALID,19.9563,VALID,13,VALID,1.15859,
2014-04-04, 01:36:04,VALID,918.307,VALID,0,VALID,96.6268,VALID,0,VALID,19.8963,VALID,17,VALID,1.49063,
2014-04-04, 01:37:04,VALID,918.325,VALID,0,VALID,96.6268,VALID,0,VALID,19.9173,VALID,7,VALID,1.38437,
2014-04-04, 01:38:04,VALID,918.284,VALID,0,VALID,96.6115,VALID,0,VALID,19.9563,VALID,352,VALID,1.33516,
2014-04-04, 01:39:04,VALID,918.262,VALID,0,VALID,96.6115,VALID,0,VALID,19.9173,VALID,15,VALID,1.26523,
2014-04-04, 01:40:04,VALID,918.262,VALID,0,VALID,96.6344,VALID,0,VALID,19.9368,VALID,8,VALID,1.31094,
2014-04-04, 01:41:04,VALID,918.266,VALID,0,VALID,96.6192,VALID,0,VALID,19.9383,VALID,27,VALID,1.18945,
2014-04-04, 01:42:04,VALID,918.258,VALID,0,VALID,96.6268,VALID,0,VALID,19.9383,VALID,27,VALID,0.749219,
2014-04-04, 01:43:04,VALID,918.243,VALID,0,VALID,96.6344,VALID,0,VALID,19.9368,VALID,358,VALID,0.651172,
2014-04-04, 01:44:04,VALID,918.234,VALID,0,VALID,96.6497,VALID,0,VALID,19.8993,VALID,30,VALID,1.02148,
2014-04-04, 01:45:04,VALID,918.237,VALID,0.2,VALID,96.642,VALID,0,VALID,19.9383,VALID,4,VALID,0.685938,
2014-04-04, 01:46:04,VALID,918.247,VALID,0,VALID,96.6344,VALID,0,VALID,19.8978,VALID,5,VALID,0.895312,
2014-04-04, 01:47:04,VALID,918.248,VALID,0,VALID,96.642,VALID,0,VALID,19.9173,VALID,23,VALID,0.711328,
2014-04-04, 01:48:04,VALID,918.225,VALID,0,VALID,96.6115,VALID,0,VALID,19.9758,VALID,22,VALID,0.900781,
2014-04-04, 01:49:04,VALID,918.225,VALID,0,VALID,96.6268,VALID,0,VALID,19.9953,VALID,360,VALID,1.41133,
2014-04-04, 01:50:04,VALID,918.24,VALID,0,VALID,96.6344,VALID,0,VALID,19.9368,VALID,9,VALID,1.17695,
2014-04-04, 01:51:04,VALID,918.211,VALID,0,VALID,96.6268,VALID,0,VALID,19.9563,VALID,20,VALID,1.03711,
2014-04-04, 01:52:04,VALID,918.217,VALID,0,VALID,96.6344,VALID,0,VALID,19.9368,VALID,26,VALID,1.13906,
2014-04-04, 01:53:04,VALID,918.21,VALID,0,VALID,96.6344,VALID,0,VALID,19.9368,VALID,24,VALID,1.01367,
2014-04-04, 01:54:04,VALID,918.218,VALID,0,VALID,96.6268,VALID,0,VALID,19.8978,VALID,321,VALID,0.928125,
2014-04-04, 01:55:04,VALID,918.161,VALID,0,VALID,96.6725,VALID,0,VALID,19.8198,VALID,271,VALID,0.51875,
2014-04-04, 01:56:04,VALID,918.167,VALID,0,VALID,96.6573,VALID,0,VALID,19.8408,VALID,277,VALID,0.29375,
2014-04-04, 01:57:04,VALID,918.152,VALID,0.2,VALID,96.642,VALID,0,VALID,19.8783,VALID,6,VALID,1.69727,
2014-04-04, 01:58:04,VALID,918.14,VALID,0,VALID,96.6344,VALID,0,VALID,19.8978,VALID,21,VALID,0.927734,
2014-04-04, 01:59:04,VALID,918.113,VALID,0,VALID,96.642,VALID,0,VALID,19.8978,VALID,22,VALID,0.638281,
2014-04-04, 02:00:04,VALID,918.115,VALID,0,VALID,96.642,VALID,0,VALID,19.8588,VALID,17,VALID,1.59805,
2014-04-04, 02:01:04,VALID,918.105,VALID,0,VALID,96.642,VALID,0,VALID,19.8588,VALID,2,VALID,1.04922,
2014-04-04, 02:02:04,VALID,918.091,VALID,0,VALID,96.6573,VALID,0,VALID,19.8393,VALID,339,VALID,0.724609,
2014-04-04, 02:03:04,VALID,918.076,VALID,0,VALID,96.6725,VALID,0,VALID,19.8408,VALID,6,VALID,1.18789,
2014-04-04, 02:04:04,VALID,918.049,VALID,0,VALID,96.6497,VALID,0,VALID,19.8198,VALID,25,VALID,1.27109,
2014-04-04, 02:05:04,VALID,918.009,VALID,0,VALID,96.6573,VALID,0,VALID,19.8393,VALID,17,VALID,1.52031,
2014-04-04, 02:06:04,VALID,918.024,VALID,0,VALID,96.6497,VALID,0,VALID,19.8408,VALID,2,VALID,0.932031,
2014-04-04, 02:07:04,VALID,918.013,VALID,0,VALID,96.6649,VALID,0,VALID,19.7823,VALID,20,VALID,1.19961,
2014-04-04, 02:08:04,VALID,917.988,VALID,0,VALID,96.6725,VALID,0.107441,VALID,19.7808,VALID,25,VALID,1.40469,
2014-04-04, 02:09:04,VALID,917.977,VALID,0,VALID,96.6649,VALID,0,VALID,19.8003,VALID,22,VALID,1.08438,
2014-04-04, 02:10:04,VALID,917.951,VALID,0,VALID,96.6497,VALID,0,VALID,19.8198,VALID,1,VALID,0.501953,
2014-04-04, 02:11:04,VALID,917.965,VALID,0,VALID,96.6573,VALID,0,VALID,19.8213,VALID,6,VALID,0.836719,
2014-04-04, 02:12:04,VALID,917.944,VALID,0,VALID,96.6573,VALID,0,VALID,19.8003,VALID,14,VALID,1.24609,
2014-04-04, 02:13:04,VALID,917.94,VALID,0,VALID,96.6802,VALID,0,VALID,19.7613,VALID,31,VALID,1.89609,
2014-04-04, 02:14:04,VALID,917.942,VALID,0.2,VALID,96.6802,VALID,0,VALID,19.8018,VALID,347,VALID,1.78086,
2014-04-04, 02:15:04,VALID,917.973,VALID,0,VALID,96.6725,VALID,0,VALID,19.6638,VALID,358,VALID,1.2918,
2014-04-04, 02:16:04,VALID,917.942,VALID,0,VALID,96.6725,VALID,0,VALID,19.7433,VALID,31,VALID,1.28086,
2014-04-04, 02:17:04,VALID,917.986,VALID,0,VALID,96.6802,VALID,0,VALID,19.7223,VALID,9,VALID,1.19414,
2014-04-04, 02:18:04,VALID,917.956,VALID,0,VALID,96.6802,VALID,0,VALID,19.7238,VALID,14,VALID,1.06367,
2014-04-04, 02:19:04,VALID,917.965,VALID,0,VALID,96.6954,VALID,0,VALID,19.7238,VALID,9,VALID,1.29727,
2014-04-04, 02:20:04,VALID,917.938,VALID,0,VALID,96.6802,VALID,0,VALID,19.6638,VALID,7,VALID,1.59297,
2014-04-04, 02:21:04,VALID,917.999,VALID,0,VALID,96.6725,VALID,0,VALID,19.7043,VALID,8,VALID,1.61406,
2014-04-04, 02:22:04,VALID,917.969,VALID,0,VALID,96.6725,VALID,0,VALID,19.7043,VALID,17,VALID,1.59883,
2014-04-04, 02:23:04,VALID,917.953,VALID,0,VALID,96.6954,VALID,0,VALID,19.6248,VALID,39,VALID,1.97891,
2014-04-04, 02:24:04,VALID,917.998,VALID,0,VALID,96.6954,VALID,0,VALID,19.6653,VALID,14,VALID,1.37422,
2014-04-04, 02:25:04,VALID,917.989,VALID,0,VALID,96.6954,VALID,0,VALID,19.6653,VALID,23,VALID,1.3168,
2014-04-04, 02:26:04,VALID,917.994,VALID,0,VALID,96.703,VALID,0,VALID,19.6653,VALID,33,VALID,1.53359,
2014-04-04, 02:27:04,VALID,917.998,VALID,0,VALID,96.6802,VALID,0,VALID,19.6833,VALID,11,VALID,1.54492,
2014-04-04, 02:28:04,VALID,917.942,VALID,0,VALID,96.703,VALID,0,VALID,19.6458,VALID,24,VALID,1.41953,
2014-04-04, 02:29:04,VALID,918.001,VALID,0,VALID,96.7107,VALID,0,VALID,19.6458,VALID,22,VALID,0.760547,
2014-04-04, 02:30:04,VALID,917.988,VALID,0,VALID,96.6954,VALID,0,VALID,19.6653,VALID,22,VALID,1.93086,
2014-04-04, 02:31:04,VALID,917.985,VALID,0,VALID,96.6954,VALID,0,VALID,19.6638,VALID,21,VALID,1.05742,
2014-04-04, 02:32:04,VALID,917.965,VALID,0,VALID,96.703,VALID,0,VALID,19.6443,VALID,3,VALID,1.78281,
2014-04-04, 02:33:04,VALID,917.966,VALID,0,VALID,96.703,VALID,0,VALID,19.6248,VALID,33,VALID,1.19805,
2014-04-04, 02:34:04,VALID,917.951,VALID,0,VALID,96.7107,VALID,0,VALID,19.5858,VALID,7,VALID,0.808203,
2014-04-04, 02:35:04,VALID,918.008,VALID,0,VALID,96.703,VALID,0,VALID,19.6263,VALID,282,VALID,0.811719,
2014-04-04, 02:36:04,VALID,917.974,VALID,0,VALID,96.7183,VALID,0,VALID,19.5873,VALID,52,VALID,0.992578,
2014-04-04, 02:37:04,VALID,917.993,VALID,0,VALID,96.7107,VALID,0,VALID,19.5873,VALID,8,VALID,1.16055,
2014-04-04, 02:38:04,VALID,918.031,VALID,0,VALID,96.6954,VALID,0,VALID,19.5873,VALID,19,VALID,2.32969,
2014-04-04, 02:39:04,VALID,917.979,VALID,0,VALID,96.7259,VALID,0,VALID,19.5288,VALID,342,VALID,0.847266,
2014-04-04, 02:40:04,VALID,918.016,VALID,0,VALID,96.7183,VALID,0,VALID,19.5093,VALID,6,VALID,0.961328,
2014-04-04, 02:41:04,VALID,918.01,VALID,0,VALID,96.7107,VALID,0,VALID,19.5093,VALID,347,VALID,0.813672,
2014-04-04, 02:42:04,VALID,917.994,VALID,0,VALID,96.7259,VALID,0,VALID,19.4898,VALID,26,VALID,1.01523,
2014-04-04, 02:43:04,VALID,918.008,VALID,0,VALID,96.7107,VALID,0,VALID,19.5093,VALID,21,VALID,0.654688,
2014-04-04, 02:44:04,VALID,918.032,VALID,0,VALID,96.7183,VALID,0,VALID,19.5288,VALID,2,VALID,0.976563,
2014-04-04, 02:45:04,VALID,917.972,VALID,0,VALID,96.7335,VALID,0,VALID,19.4898,VALID,1,VALID,1.35781,
2014-04-04, 02:46:04,VALID,917.96,VALID,0,VALID,96.7411,VALID,0,VALID,19.5093,VALID,39,VALID,1.34023,
2014-04-04, 02:47:04,VALID,917.975,VALID,0,VALID,96.7259,VALID,0,VALID,19.5093,VALID,31,VALID,0.633984,
2014-04-04, 02:48:04,VALID,917.934,VALID,0,VALID,96.7488,VALID,0,VALID,19.4703,VALID,73,VALID,0.962891,
2014-04-04, 02:49:04,VALID,917.89,VALID,0,VALID,96.7411,VALID,0,VALID,19.4703,VALID,59,VALID,1.12266,
2014-04-04, 02:50:04,VALID,917.898,VALID,0.2,VALID,96.7183,VALID,0,VALID,19.4898,VALID,29,VALID,1.35625,
2014-04-04, 02:51:04,VALID,917.866,VALID,0,VALID,96.7335,VALID,0,VALID,19.4898,VALID,10,VALID,1.16641,
2014-04-04, 02:52:04,VALID,917.881,VALID,0,VALID,96.7335,VALID,0,VALID,19.5498,VALID,23,VALID,0.638281,
2014-04-04, 02:53:04,VALID,917.849,VALID,0,VALID,96.7335,VALID,0,VALID,19.5288,VALID,27,VALID,0.840234,
2014-04-04, 02:54:04,VALID,917.861,VALID,0,VALID,96.7335,VALID,0,VALID,19.4883,VALID,25,VALID,1.74258,
2014-04-04, 02:55:04,VALID,917.856,VALID,0,VALID,96.7335,VALID,0,VALID,19.5093,VALID,23,VALID,0.866406,
2014-04-04, 02:56:04,VALID,917.848,VALID,0,VALID,96.7107,VALID,0,VALID,19.4508,VALID,358,VALID,2.28633,
2014-04-04, 02:57:04,VALID,917.844,VALID,0,VALID,96.7564,VALID,0,VALID,19.4118,VALID,357,VALID,0.860937,
2014-04-04, 02:58:04,VALID,917.852,VALID,0,VALID,96.7259,VALID,0,VALID,19.3923,VALID,20,VALID,1.35586,
2014-04-04, 02:59:04,VALID,917.844,VALID,0,VALID,96.7411,VALID,0,VALID,19.4118,VALID,7,VALID,1.31719,
2014-04-04, 03:00:04,VALID,917.84,VALID,0,VALID,96.7411,VALID,0,VALID,19.3923,VALID,18,VALID,0.46875,
2014-04-04, 03:01:04,VALID,917.835,VALID,0,VALID,96.764,VALID,0,VALID,19.3923,VALID,12,VALID,1.39648,
2014-04-04, 03:02:04,VALID,917.83,VALID,0,VALID,96.764,VALID,0,VALID,19.3728,VALID,23,VALID,1.42852,
2014-04-04, 03:03:04,VALID,917.821,VALID,0,VALID,96.7488,VALID,0,VALID,19.3923,VALID,18,VALID,0.838672,
2014-04-04, 03:04:04,VALID,917.808,VALID,0,VALID,96.764,VALID,0,VALID,19.3923,VALID,33,VALID,1.29609,
2014-04-04, 03:05:04,VALID,917.797,VALID,0,VALID,96.7564,VALID,0,VALID,19.3533,VALID,25,VALID,1.78828,
2014-04-04, 03:06:04,VALID,917.8,VALID,0,VALID,96.7564,VALID,0,VALID,19.3518,VALID,27,VALID,0.466406,
2014-04-04, 03:07:04,VALID,917.795,VALID,0,VALID,96.7488,VALID,0,VALID,19.3923,VALID,2,VALID,0.495313,
2014-04-04, 03:08:04,VALID,917.764,VALID,0,VALID,96.764,VALID,0,VALID,19.4132,VALID,19,VALID,2.15625,
2014-04-04, 03:09:04,VALID,917.784,VALID,0,VALID,96.7564,VALID,0,VALID,19.3728,VALID,347,VALID,1.3207,
2014-04-04, 03:10:04,VALID,917.79,VALID,0,VALID,96.7793,VALID,0,VALID,19.3533,VALID,325,VALID,1.22969,
2014-04-04, 03:11:04,VALID,917.807,VALID,0,VALID,96.7716,VALID,0,VALID,19.3533,VALID,12,VALID,0.809766,
2014-04-04, 03:12:04,VALID,917.805,VALID,0,VALID,96.764,VALID,0,VALID,19.3713,VALID,12,VALID,2.21836,
2014-04-04, 03:13:04,VALID,917.833,VALID,0,VALID,96.7564,VALID,0,VALID,19.3323,VALID,357,VALID,0.846875,
2014-04-04, 03:14:04,VALID,917.784,VALID,0,VALID,96.7716,VALID,0.107441,VALID,19.3323,VALID,19,VALID,1.66055,
2014-04-04, 03:15:04,VALID,917.817,VALID,0,VALID,96.7869,VALID,0,VALID,19.3713,VALID,14,VALID,1.63125,
2014-04-04, 03:16:04,VALID,917.814,VALID,0,VALID,96.764,VALID,0,VALID,19.3698,VALID,6,VALID,1.12031,
2014-04-04, 03:17:04,VALID,917.825,VALID,0,VALID,96.7793,VALID,0,VALID,19.4103,VALID,6,VALID,0.583203,
2014-04-04, 03:18:04,VALID,917.785,VALID,0,VALID,96.764,VALID,0,VALID,19.3713,VALID,9,VALID,1.9332,
2014-04-04, 03:19:04,VALID,917.831,VALID,0,VALID,96.7869,VALID,0,VALID,19.3518,VALID,306,VALID,1.0332,
2014-04-04, 03:20:04,VALID,917.838,VALID,0,VALID,96.7793,VALID,0,VALID,19.3518,VALID,6,VALID,0.976953,
2014-04-04, 03:21:04,VALID,917.845,VALID,0,VALID,96.764,VALID,0,VALID,19.3923,VALID,7,VALID,0.182422,
2014-04-04, 03:22:04,VALID,917.824,VALID,0,VALID,96.7564,VALID,0,VALID,19.3533,VALID,7,VALID,0.433984,
2014-04-04, 03:23:04,VALID,917.817,VALID,0,VALID,96.7716,VALID,0,VALID,19.4118,VALID,7,VALID,0.197656,
2014-04-04, 03:24:04,VALID,917.843,VALID,0,VALID,96.7793,VALID,0,VALID,19.3533,VALID,194,VALID,1.11328,
2014-04-04, 03:25:04,VALID,917.849,VALID,0,VALID,96.7488,VALID,0,VALID,19.3143,VALID,354,VALID,1.28477,
2014-04-04, 03:26:04,VALID,917.849,VALID,0,VALID,96.7793,VALID,0,VALID,19.3338,VALID,13,VALID,0.775781,
2014-04-04, 03:27:04,VALID,917.852,VALID,0,VALID,96.7945,VALID,0,VALID,19.3338,VALID,10,VALID,0.211328,
2014-04-04, 03:28:04,VALID,917.877,VALID,0,VALID,96.7716,VALID,0,VALID,19.3338,VALID,10,VALID,0.219531,
2014-04-04, 03:29:04,VALID,917.878,VALID,0,VALID,96.7945,VALID,0,VALID,19.3742,VALID,12,VALID,0.476953,
2014-04-04, 03:30:04,VALID,917.847,VALID,0,VALID,96.7793,VALID,0,VALID,19.3728,VALID,12,VALID,0.180469,
2014-04-04, 03:31:04,VALID,917.894,VALID,0,VALID,96.764,VALID,0,VALID,19.3728,VALID,12,VALID,0.236719,
2014-04-04, 03:32:04,VALID,917.875,VALID,0,VALID,96.7793,VALID,0,VALID,19.4327,VALID,12,VALID,0.228516,
2014-04-04, 03:33:04,VALID,917.864,VALID,0,VALID,96.7793,VALID,0,VALID,19.4313,VALID,18,VALID,0.896875,
2014-04-04, 03:34:04,VALID,917.883,VALID,0,VALID,96.764,VALID,0,VALID,19.3533,VALID,39,VALID,0.745703,
2014-04-04, 03:35:04,VALID,917.832,VALID,0,VALID,96.7869,VALID,0,VALID,19.3533,VALID,20,VALID,2.28984,
2014-04-04, 03:36:04,VALID,917.826,VALID,0,VALID,96.7869,VALID,0,VALID,19.3518,VALID,27,VALID,2.05117,
2014-04-04, 03:37:04,VALID,917.835,VALID,0,VALID,96.7869,VALID,0,VALID,19.3728,VALID,14,VALID,2.00781,
2014-04-04, 03:38:04,VALID,917.82,VALID,0,VALID,96.7793,VALID,0,VALID,19.3728,VALID,360,VALID,0.598047,
2014-04-04, 03:39:04,VALID,917.806,VALID,0,VALID,96.7869,VALID,0,VALID,19.3742,VALID,28,VALID,0.917188,
2014-04-04, 03:40:04,VALID,917.821,VALID,0,VALID,96.7793,VALID,0,VALID,19.3728,VALID,5,VALID,0.68125,
2014-04-04, 03:41:04,VALID,917.801,VALID,0,VALID,96.7869,VALID,0,VALID,19.3728,VALID,25,VALID,1.72109,
2014-04-04, 03:42:04,VALID,917.786,VALID,0,VALID,96.764,VALID,0,VALID,19.4132,VALID,26,VALID,1.19375,
2014-04-04, 03:43:04,VALID,917.784,VALID,0,VALID,96.7793,VALID,0,VALID,19.3742,VALID,23,VALID,0.938672,
2014-04-04, 03:44:04,VALID,917.796,VALID,0,VALID,96.7716,VALID,0,VALID,19.4132,VALID,12,VALID,1.11836,
2014-04-04, 03:45:04,VALID,917.783,VALID,0,VALID,96.7869,VALID,0,VALID,19.3937,VALID,16,VALID,0.88125,
2014-04-04, 03:46:04,VALID,917.774,VALID,0,VALID,96.7793,VALID,0,VALID,19.3728,VALID,22,VALID,1.31953,